RH
17 16 16 16 18 19 19 19 20 22 22 26 30 31 36 43 46 44 24 22 27 28 27 35 40 44 43 47 42 57 61 53 46 47 48 53 59 67 77 76 72 73 62 57 55 58 59
19 18 19 21 23 24 24 24 25 25 24 29 36 37 46 59 60 53 35 22 27 30 32 37 46 49 56 55 55 64 64 61 50 56 60 67 74 75 72 79 77 70 78 75 68 64 61
21 22 22 24 25 26 35 36 37 52 33 36 42 50 62 52 57 46 25 24 28 33 36 38 48 54 65 39 65 70 63 56 57 62 69 76 79 77 76 83 73 81 93 76 66 64 72
22 25 29 34 34 48 61 70 64 49 36 43 48 63 46 39 46 48 28 26 28 31 36 42 52 64 51 54 75 72 73 74 65 72 74 74 73 72 74 76 80 80 78 85 60 59 61
34 65 70 69 67 65 71 52 39 40 54 63 71 61 57 52 46 38 34 30 35 37 42 44 53 72 61 68 75 75 79 73 73 76 73 72 70 80 92 96 94 84 94 90 71 51 54
76 84 84 83 82 78 69 64 64 78 93 84 72 63 58 56 61 56 40 33 49 67 68 64 82 84 65 62 66 70 76 75 80 75 73 80 85 99 90 96 93 83 95 80 77 58 57
86 88 88 88 85 84 83 88 86 85 87 85 74 67 67 68 66 62 34 41 57 68 86 56 51 58 57 64 63 66 70 77 79 74 82 92 99 94 85 84 73 76 85 90 72 58 69
94 96 95 94 90 89 88 88 87 73 74 72 66 63 61 60 58 56 50 56 62 49 80 44 57 78 69 68 66 70 74 79 81 83 69 80 94 73 70 76 85 87 96 90 71 60 71
100 99 98 96 84 93 90 89 83 77 68 66 63 62 61 61 58 68 57 65 64 64 85 63 66 63 68 64 66 63 79 87 82 84 79 78 69 60 72 84 88 87 89 83 86 69 66
100 100 94 98 97 90 85 91 82 83 71 70 66 66 68 65 64 58 62 75 59 73 90 65 67 72 72 62 68 60 71 76 84 89 82 80 67 77 82 92 83 97 65 72 77 86 87
99 99 74 93 94 96 80 97 88 92 87 78 79 73 72 72 68 60 69 45 66 87 87 63 76 77 79 71 77 86 75 80 85 74 86 79 76 79 96 87 80 86 65 78 86 94 97
98 100 97 80 88 85 89 97 86 92 90 79 85 79 72 69 59 62 63 53 82 85 83 84 84 84 89 83 80 90 86 81 82 86 78 81 66 72 78 69 76 64 86 85 88 96 96
50 74 86 80 85 73 86 93 99 90 94 86 92 87 74 50 45 52 51 75 91 92 55 76 83 85 88 88 86 92 94 98 98 100 99 77 80 71 69 85 80 94 90 95 96 100 86
20 24 28 68 82 76 76 90 90 89 96 87 88 82 73 49 35 38 65 82 86 64 76 57 52 58 84 76 81 92 91 98 94 89 98 97 84 68 64 63 60 65 79 98 96 85 73
18 18 20 21 42 58 66 80 91 95 100 90 83 76 74 54 37 51 74 96 83 82 59 53 56 72 74 73 76 82 94 90 83 88 99 97 94 58 46 47 52 68 80 69 98 89 97
13 13 15 15 19 30 59 80 79 88 87 85 88 84 72 59 45 72 87 77 82 52 44 47 58 67 90 94 80 93 84 70 89 82 76 96 98 65 56 47 44 50 64 99 98 96 90
12 13 12 13 14 20 32 69 76 89 91 99 90 87 73 63 55 74 88 85 76 53 40 49 59 72 82 89 93 93 84 76 75 93 96 100 100 74 50 51 58 80 69 92 94 97 96
11 12 12 13 13 16 28 46 80 79 94 96 95 96 84 82 70 98 98 83 65 52 42 45 49 56 67 60 90 98 94 80 72 91 96 91 97 96 75 48 67 83 98 90 92 86 77
14 15 14 15 15 14 14 24 45 72 99 98 100 92 94 82 91 98 87 83 63 49 44 46 53 58 55 66 93 81 69 61 64 77 93 78 94 95 70 50 49 58 52 51 57 71 89
19 17 18 24 22 20 18 19 44 64 84 97 84 100 96 74 80 85 84 86 73 54 50 47 76 53 54 86 69 96 70 56 56 58 58 82 97 85 82 65 65 77 68 61 64 87 74
24 24 23 27 24 21 23 23 24 57 88 97 95 97 99 98 90 99 99 98 94 86 70 66 66 74 87 97 90 80 65 75 69 56 69 95 97 92 84 80 82 82 74 70 77 70 85
34 51 45 56 32 25 23 22 26 32 50 93 89 94 100 99 100 100 95 93 98 90 87 96 80 81 94 98 88 95 87 86 85 69 76 94 96 90 94 78 74 76 68 68 68 68 79
26 19 20 26 24 38 35 54 48 49 55 90 85 95 92 84 96 100 88 89 94 87 89 89 92 97 88 93 96 78 95 86 96 97 90 94 96 96 87 73 81 74 60 70 72 86 94
14 14 21 24 24 36 52 80 94 92 83 74 95 87 98 92 96 91 93 92 82 91 97 90 89 95 85 96 99 96 100 98 96 90 81 94 97 93 94 86 98 51 81 93 92 96 97
14 19 40 46 52 68 90 97 88 88 94 91 86 91 86 98 89 87 88 94 84 77 86 81 87 82 99 98 98 94 84 79 81 91 96 90 95 96 96 98 75 66 81 85 91 94 99
15 25 24 20 22 42 71 78 83 90 92 88 85 85 81 100 89 79 81 83 97 95 92 77 77 80 78 98 97 97 96 83 82 85 80 94 96 96 96 97 99 73 73 76 79 96 89
12 14 13 13 15 22 30 37 56 91 89 95 99 99 100 100 80 79 88 90 96 98 98 92 88 85 90 97 98 98 96 86 89 93 94 99 97 96 95 96 88 76 94 82 95 96 95
11 12 13 13 16 45 83 89 93 98 98 98 93 87 99 99 97 98 91 99 99 99 98 84 93 90 96 96 96 96 97 94 96 92 92 96 95 96 96 96 91 89 82 80 96 96 98
13 13 13 13 14 17 24 45 77 90 97 97 92 95 95 100 98 89 99 89 100 92 99 98 82 96 97 98 97 97 91 96 94 96 84 94 94 97 97 97 93 97 98 97 96 98 99
Wind_Speed
11 12 13 13 15 15 16 17 17 18 17 17 18 19 20 19 19 18 17 14 10 9 10 9 9 10 10 6 5 5 3 2 3 4 2 2 6 3 2 3 8 5 6 14 20 23 21
11 13 13 14 14 15 15 15 16 17 17 17 20 20 21 21 21 19 16 13 10 10 10 10 9 10 8 4 4 4 5 4 4 3 1 3 3 4 2 2 1 6 16 23 24 32 26
12 13 14 14 15 14 16 16 16 18 17 19 19 21 20 19 17 16 14 12 10 9 10 10 9 10 11 10 6 5 5 4 4 3 1 1 3 2 5 5 7 12 14 17 22 24 10
13 13 14 14 14 16 17 17 16 16 18 21 21 20 17 18 17 14 13 12 11 9 8 8 7 8 7 6 7 9 8 5 4 1 1 3 6 4 3 6 6 6 5 6 6 4 7
14 16 16 16 16 16 15 15 16 17 20 21 20 19 19 19 18 16 14 12 12 10 8 6 5 6 8 4 9 10 10 6 4 1 3 5 5 4 3 1 3 4 7 7 8 5 6
15 17 17 18 17 17 16 17 18 20 20 20 20 20 20 19 17 17 15 13 10 8 4 3 6 4 6 3 4 7 9 7 4 3 4 7 3 2 4 3 5 6 6 7 14 2 4
16 17 18 19 19 17 17 17 18 18 20 21 22 21 20 20 18 16 9 6 4 2 5 8 5 5 5 4 5 6 11 9 5 5 4 5 3 13 15 14 7 5 11 19 27 17 19
15 16 17 19 21 18 18 19 18 19 20 19 21 22 23 21 19 9 9 4 4 8 9 13 20 21 6 5 4 7 9 8 7 7 7 3 13 17 10 12 13 17 20 26 25 15 8
16 16 16 18 20 19 18 17 17 16 19 19 20 20 24 23 16 6 11 6 9 8 5 6 4 7 11 16 8 11 17 8 6 8 10 12 6 2 4 11 15 20 21 24 23 24 16
16 17 18 19 17 16 19 15 16 17 16 17 21 22 26 24 8 12 6 7 10 6 2 3 3 2 5 8 4 15 18 7 4 5 6 11 16 12 7 13 12 16 12 21 21 14 12
20 18 16 17 18 17 17 17 17 16 17 18 18 22 26 24 14 9 6 9 6 4 4 1 3 6 5 5 1 6 20 9 7 7 4 8 6 6 7 9 10 12 7 11 18 19 18
20 20 19 15 16 17 18 17 18 17 15 17 18 21 25 21 13 8 7 7 3 4 5 1 3 3 2 6 3 8 8 12 5 6 11 20 5 5 7 6 10 9 7 15 17 6 6
20 20 18 16 14 15 16 18 19 15 13 17 17 20 21 16 13 9 5 3 4 3 6 6 3 3 4 4 5 7 7 7 5 4 6 4 10 6 7 5 3 3 5 5 4 2 8
20 18 18 14 15 15 15 16 14 15 15 17 16 20 18 11 11 5 2 4 4 6 3 1 3 5 6 4 5 6 3 6 12 8 3 3 7 6 6 4 6 7 4 3 6 6 17
19 18 18 16 15 14 15 14 13 15 11 19 16 19 15 7 7 0 1 3 7 5 3 4 8 3 2 1 1 3 7 5 5 14 6 3 5 4 7 3 1 4 6 5 9 10 7
18 16 16 16 15 13 12 11 14 14 13 14 12 16 11 6 5 2 3 5 4 3 2 1 3 0 2 2 2 1 3 2 2 3 0 2 6 3 7 4 6 3 3 4 3 5 6
16 15 16 16 14 12 11 8 9 11 13 12 15 8 4 5 4 2 2 5 5 7 3 3 3 4 4 3 2 2 5 3 2 3 3 4 4 2 3 3 9 6 2 4 5 4 4
14 15 16 16 16 13 10 8 8 9 9 11 5 3 5 7 2 1 2 4 5 5 3 4 2 3 5 2 3 3 5 3 6 6 1 1 4 4 8 12 6 4 1 3 3 7 7
14 15 15 15 15 14 12 10 8 9 6 8 4 6 6 4 1 2 5 4 4 3 3 3 3 5 2 4 3 4 4 5 4 4 3 2 2 5 7 6 1 2 7 8 10 10 10
13 13 14 16 15 14 13 11 8 7 6 6 5 3 2 2 2 2 3 5 4 5 4 4 4 9 2 3 5 4 4 1 1 4 10 1 4 7 9 7 5 10 16 18 7 6 11
12 13 14 15 15 15 14 13 10 6 3 1 2 2 1 3 4 2 2 1 4 5 3 5 4 6 5 4 3 5 4 5 6 10 2 4 5 6 11 12 10 14 17 19 17 14 11
12 13 13 14 16 16 16 14 11 7 5 1 3 3 2 5 4 4 3 2 5 6 3 4 6 8 4 5 6 11 9 4 9 5 4 2 5 4 6 9 13 16 18 16 17 14 11
11 11 12 13 15 15 15 16 14 13 5 2 2 6 6 4 2 2 4 3 4 14 9 11 10 15 18 14 19 21 16 19 9 5 5 4 2 3 9 2 6 10 5 4 3 3 5
10 10 11 12 13 13 14 12 13 14 14 10 4 7 5 4 2 4 3 9 14 11 11 18 19 10 11 18 21 19 22 23 20 17 16 9 6 5 5 3 1 4 3 6 4 4 6
9 11 12 13 13 13 13 13 13 9 12 11 10 3 4 4 3 9 5 4 15 22 6 13 11 12 14 11 3 5 4 4 2 1 6 11 8 2 2 4 6 3 4 3 3 3 10
10 10 11 14 15 13 11 9 7 9 10 13 9 7 7 6 4 6 11 12 4 4 4 7 15 13 7 2 2 1 3 3 5 4 3 2 7 4 1 3 5 2 6 7 3 2 14
10 11 13 15 16 16 16 14 12 10 9 12 12 12 12 10 18 7 3 7 6 5 3 5 8 11 5 2 2 2 4 2 2 1 3 2 2 4 4 3 6 4 12 10 2 4 14
11 13 15 16 16 18 18 18 17 14 12 13 17 14 17 12 19 23 18 17 14 7 3 5 6 3 3 1 1 3 2 2 0 3 4 2 1 2 2 1 5 19 5 4 7 9 14
12 14 15 16 18 19 18 15 13 13 13 14 17 10 13 16 20 29 28 24 25 23 20 5 4 1 4 2 1 2 3 3 1 3 4 2 3 2 2 2 8 16 15 11 12 10 15
Wind_Direction
4 358 358 358 0 359 358 360 356 354 357 356 355 352 347 343 337 340 337 327 312 292 282 281 287 298 315 312 272 232 248 275 322 316 331 35 43 49 14 355 324 227 282 281 287 295 286
352 352 353 356 356 355 356 354 351 349 346 347 344 340 338 336 336 330 328 326 315 298 285 283 290 298 304 285 244 200 221 264 280 322 48 63 56 10 313 276 241 316 313 302 294 284 283
354 356 356 356 357 354 349 349 347 343 341 341 341 344 348 346 345 344 338 332 321 304 287 282 284 290 289 277 236 226 210 250 273 278 169 100 341 345 348 325 299 303 302 295 271 265 255
4 5 4 359 353 346 347 344 346 345 341 341 342 346 350 352 354 343 337 332 325 307 288 280 273 281 264 234 210 219 232 261 250 294 313 314 284 294 258 284 304 270 258 290 276 160 238
6 8 3 358 355 351 353 353 348 346 341 341 342 346 345 346 347 340 330 324 317 304 287 272 263 266 270 232 225 225 235 231 178 157 250 265 268 228 200 202 291 241 265 259 288 199 201
9 8 6 2 2 360 353 352 348 345 348 351 350 346 340 338 335 333 328 319 311 298 273 233 218 263 246 246 196 203 209 230 181 203 243 209 224 218 219 150 241 240 258 258 271 246 228
3 7 5 359 360 356 352 352 349 355 350 350 353 353 352 344 337 332 340 343 344 309 249 230 223 240 290 192 165 185 196 206 194 217 216 192 226 233 222 210 231 265 267 271 270 272 274
358 2 360 353 351 350 354 347 352 353 353 356 355 353 350 344 336 334 348 349 316 301 296 274 256 252 187 190 188 212 204 182 186 215 221 223 246 245 245 232 235 254 265 269 283 266 231
348 348 350 347 343 345 350 346 348 352 353 357 353 349 344 341 334 318 331 322 324 308 279 288 244 233 222 229 238 216 193 194 205 226 221 231 238 282 224 248 234 251 256 265 265 290 277
342 342 339 336 337 340 339 337 344 343 345 350 342 339 339 344 342 325 323 313 320 303 7 244 192 197 167 198 250 228 207 185 205 236 233 254 261 262 272 255 215 254 248 250 268 295 304
327 321 325 324 324 320 325 331 335 339 336 335 340 341 343 342 327 324 317 323 310 314 350 206 163 169 185 188 321 203 202 198 229 218 176 250 261 247 231 232 166 237 268 272 274 274 288
319 319 314 313 320 319 319 318 322 330 333 330 335 340 344 342 337 317 312 322 307 36 270 74 125 178 171 214 233 146 176 221 232 246 233 251 265 249 233 272 199 261 309 278 269 251 247
312 309 319 309 302 310 310 311 316 327 324 327 334 335 344 347 349 332 316 348 23 119 345 326 270 182 233 209 206 184 186 194 211 233 214 256 243 236 208 274 171 136 296 304 328 242 241
316 315 314 319 311 302 299 311 313 312 307 326 336 336 343 347 348 4 103 67 110 224 232 270 257 259 214 154 242 195 226 242 223 216 274 241 322 175 183 233 276 265 211 248 288 284 294
325 326 325 323 313 302 303 308 312 317 300 322 334 333 327 331 345 192 210 78 209 213 224 297 308 239 223 193 254 206 224 244 238 187 214 236 241 301 282 334 254 293 264 272 267 258 272
333 331 333 332 325 320 315 304 319 320 320 312 319 320 312 317 327 264 61 257 273 258 301 286 258 16 292 275 326 57 256 230 302 168 90 294 279 253 296 287 293 206 335 307 259 296 289
345 346 345 339 338 336 331 320 330 318 315 328 325 307 270 305 312 277 177 243 285 294 283 221 274 297 263 261 223 259 265 314 60 59 33 334 242 270 2 287 332 343 8 329 284 251 292
353 357 352 355 358 356 344 323 307 311 321 317 331 299 280 299 345 31 244 215 307 287 262 292 291 252 226 260 273 246 239 244 157 156 250 186 301 276 234 272 210 136 90 19 334 322 288
356 355 357 359 0 0 352 340 318 321 339 323 281 270 278 270 236 275 277 273 262 274 246 248 266 223 235 270 279 284 316 327 213 187 193 188 264 304 328 349 102 13 323 304 303 259 266
1 6 14 16 13 11 7 8 358 346 317 290 299 320 298 238 254 270 314 275 279 321 262 232 228 270 220 263 213 264 247 341 341 284 313 138 226 227 255 257 285 292 305 293 285 275 290
19 23 21 17 12 12 10 9 4 3 9 140 270 281 290 302 314 286 206 270 286 289 263 265 286 247 202 250 252 237 256 328 296 287 282 190 259 239 261 273 278 275 277 282 287 264 270
20 16 15 9 15 18 17 10 358 347 354 21 296 308 309 275 270 254 233 270 209 293 278 273 251 274 236 246 216 283 284 248 256 278 202 230 260 251 262 262 267 282 281 277 267 285 276
9 8 2 2 7 7 5 14 17 18 15 43 323 287 314 270 214 285 261 235 293 317 271 272 311 307 293 260 260 266 260 266 237 227 224 220 252 311 279 285 296 296 283 293 301 73 316
360 3 6 6 2 1 359 359 2 6 20 14 309 312 290 279 254 273 319 304 305 295 288 292 291 287 300 305 299 282 258 250 246 249 238 245 236 233 265 31 312 228 2 66 84 59 1
2 3 4 357 356 358 356 360 358 345 346 353 7 288 284 279 311 299 308 270 310 311 293 301 319 315 300 310 297 337 314 344 285 294 218 214 225 251 223 195 294 354 11 2 41 37 11
354 357 353 348 344 337 330 334 340 343 334 317 322 309 286 294 243 266 307 298 292 300 301 272 306 320 311 282 3 270 261 243 302 314 5 115 219 198 149 189 226 247 316 318 263 187 8
353 351 347 342 340 338 331 322 307 298 285 296 301 293 266 250 282 280 253 301 268 262 260 311 331 329 341 317 278 227 263 191 286 234 304 344 327 219 220 248 291 316 322 322 96 340 359
347 345 342 339 339 343 341 340 343 332 322 297 285 285 277 269 281 281 279 267 268 258 261 280 334 274 337 334 234 270 245 255 204 235 195 202 219 252 37 206 291 348 341 55 335 334 354
340 338 344 343 341 338 329 325 319 318 317 316 297 297 277 277 279 287 288 292 282 279 276 250 230 270 270 290 313 329 290 320 169 266 310 317 204 262 194 60 67 42 71 42 20 355 349